Whiteville, NC

12:31 PM EDT on March 30, 2017 (GMT -0400)
Columbus County Municipal

Weather History for KCPC - November, 2013

Change the Weather History Date:

Friday, November 8, 2013

  Actual Average (KCRE) Record (KCRE)
Temperature  
Mean Temperature 48 °F -  
Max Temperature 59 °F 65 °F 77 °F (1996)
Min Temperature 36 °F 46 °F 26 °F (1954)
Degree Days  
Heating Degree Days 18    
Moisture  
Dew Point 32 °F    
Average Humidity 56    
Maximum Humidity 94    
Minimum Humidity 31    
Precipitation  
Precipitation 0.00 in - - ()
Sea Level Pressure  
Sea Level Pressure 30.23 in    
Wind  
Wind Speed 5 mph (North)    
Max Wind Speed 10 mph    
Max Gust Speed 18 mph    
Visibility 10 miles    
Events      
Averages and records for this station are not official NWS values.
T = Trace of Precipitation, MM = Missing Value Source: NWS Daily Summary

Daily Weather History Graph

Daily Weather History Graph

Search for Another Location

Airport or City:

Trip Planner

Search our weather history database for the weather conditions in past years. The results will help you decide how hot, cold, wet, or windy it might be!

Date:

Astronomy

Nov. 08, 2013 Rise Set
Actual Time 6:41 AM EST 5:15 PM EST
Civil Twilight 6:15 AM EST 5:41 PM EST
Nautical Twilight 5:45 AM EST 6:11 PM EST
Astronomical Twilight 5:15 AM EST 6:41 PM EST
Moon 11:35 AM EST (11/8) 10:33 PM EST (11/8)
Length of Visible Light 11h 26m
Length of Day
10h 33m
Waxing Crescent, 33% of the Moon is Illuminated
Nov 8
Waxing Crescent
Nov 10
First Quarter
Nov 17
Full
Nov 25
Last Quarter
Dec 2
New

Hourly Weather History & Observations

Time (EST) Temp. Windchill Dew Point Humidity Pressure Visibility Wind Dir Wind Speed Gust Speed Precip Events Conditions
12:15 AM 52.3 °F - 36.5 °F 55% 30.08 in 10.0 mi North 8.1 mph - N/A   Clear
12:35 AM 51.4 °F - 35.8 °F 55% 30.09 in 10.0 mi North 5.8 mph - N/A   Clear
12:55 AM 50.7 °F - 35.6 °F 56% 30.09 in 10.0 mi North 6.9 mph - N/A   Clear
1:15 AM 50.0 °F - 35.1 °F 57% 30.10 in 10.0 mi North 6.9 mph - N/A   Clear
1:35 AM 49.5 °F - 34.3 °F 56% 30.11 in 10.0 mi North 6.9 mph 16.1 mph N/A   Clear
1:55 AM 49.1 °F - 34.0 °F 56% 30.12 in 10.0 mi North 5.8 mph - N/A   Clear
2:15 AM 48.4 °F - 34.2 °F 58% 30.13 in 10.0 mi North 5.8 mph - N/A   Clear
2:35 AM 48.2 °F - 34.0 °F 58% 30.13 in 10.0 mi North 4.6 mph - N/A   Clear
2:55 AM 47.7 °F - 34.0 °F 59% 30.14 in 10.0 mi North 3.5 mph - N/A   Clear
3:15 AM 47.1 °F - 33.8 °F 60% 30.15 in 10.0 mi North 4.6 mph - N/A   Clear
3:35 AM 46.8 °F - 33.8 °F 61% 30.16 in 10.0 mi North 5.8 mph - N/A   Clear
3:55 AM 46.4 °F - 33.8 °F 62% 30.16 in 10.0 mi Calm Calm - N/A   Clear
4:15 AM 46.0 °F 43.1 °F 33.8 °F 62% 30.18 in 10.0 mi North 5.8 mph - N/A   Clear
4:35 AM 45.9 °F 42.3 °F 33.4 °F 62% 30.19 in 10.0 mi North 6.9 mph - N/A   Clear
4:55 AM 45.7 °F 42.7 °F 33.3 °F 62% 30.19 in 10.0 mi North 5.8 mph - N/A   Clear
5:15 AM 46.0 °F 41.9 °F 32.0 °F 58% 30.20 in 10.0 mi North 8.1 mph - N/A   Clear
5:35 AM 45.9 °F 41.7 °F 31.1 °F 56% 30.21 in 10.0 mi North 8.1 mph - N/A   Clear
5:55 AM 45.7 °F 42.0 °F 30.4 °F 55% 30.21 in 10.0 mi NNE 6.9 mph 16.1 mph N/A   Clear
6:15 AM 45.3 °F 41.1 °F 30.0 °F 55% 30.22 in 10.0 mi NNE 8.1 mph 16.1 mph N/A   Clear
6:35 AM 45.1 °F 41.4 °F 29.3 °F 54% 30.23 in 10.0 mi North 6.9 mph 17.3 mph N/A   Clear
6:55 AM 44.8 °F 41.6 °F 29.1 °F 54% 30.24 in 10.0 mi North 5.8 mph - N/A   Clear
7:15 AM 45.1 °F 41.4 °F 28.8 °F 53% 30.24 in 10.0 mi North 6.9 mph - N/A   Clear
7:35 AM 45.7 °F 42.0 °F 29.5 °F 53% 30.25 in 10.0 mi North 6.9 mph - N/A   Clear
7:55 AM 46.4 °F 42.4 °F 29.5 °F 52% 30.26 in 10.0 mi North 8.1 mph - N/A   Clear
8:15 AM 47.5 °F - 28.9 °F 49% 30.26 in 10.0 mi North 6.9 mph - N/A   Clear
8:35 AM 48.2 °F - 28.9 °F 47% 30.27 in 10.0 mi NNE 8.1 mph - N/A   Clear
8:55 AM 49.1 °F - 28.9 °F 46% 30.28 in 10.0 mi NNE 9.2 mph - N/A   Clear
9:15 AM 50.0 °F - 27.7 °F 42% 30.28 in 10.0 mi NNE 8.1 mph 17.3 mph N/A   Clear
9:35 AM 50.7 °F - 27.5 °F 41% 30.28 in 10.0 mi North 10.4 mph 18.4 mph N/A   Clear
9:55 AM 51.8 °F - 27.0 °F 38% 30.28 in 10.0 mi NNE 9.2 mph 18.4 mph N/A   Clear
10:15 AM 52.5 °F - 27.9 °F 39% 30.29 in 10.0 mi NNE 5.8 mph 9.2 mph N/A   Clear
10:35 AM 52.7 °F - 27.0 °F 37% 30.28 in 10.0 mi NNE 6.9 mph - N/A   Clear
10:55 AM 53.8 °F - 27.0 °F 36% 30.28 in 10.0 mi NNE 10.4 mph 16.1 mph N/A   Clear
11:15 AM 54.7 °F - 28.8 °F 37% 30.28 in 10.0 mi North 5.8 mph - N/A   Clear
11:35 AM 54.9 °F - 28.2 °F 36% 30.28 in 10.0 mi North 5.8 mph - N/A   Clear
11:55 AM 55.2 °F - 27.3 °F 34% 30.26 in 10.0 mi North 6.9 mph - N/A   Clear
12:15 PM 56.1 °F - 28.9 °F 35% 30.25 in 10.0 mi NNW 5.8 mph - N/A   Clear
12:35 PM 55.6 °F - 27.3 °F 34% 30.24 in 10.0 mi NNE 3.5 mph - N/A   Clear
12:55 PM 56.3 °F - 27.9 °F 34% 30.24 in 10.0 mi North 8.1 mph - N/A   Clear
1:15 PM 56.8 °F - 29.3 °F 35% 30.23 in 10.0 mi North 3.5 mph - N/A   Clear
1:35 PM 57.0 °F - 28.4 °F 34% 30.22 in 10.0 mi North 5.8 mph - N/A   Clear
1:55 PM 57.4 °F - 28.6 °F 33% 30.21 in 10.0 mi WNW 4.6 mph - N/A   Clear
2:15 PM 58.3 °F - 28.8 °F 33% 30.21 in 10.0 mi NW 5.8 mph - N/A   Clear
2:35 PM 58.8 °F - 29.3 °F 33% 30.21 in 10.0 mi North 4.6 mph - N/A   Clear
2:55 PM 58.8 °F - 28.2 °F 31% 30.21 in 10.0 mi Calm Calm - N/A   Clear
3:15 PM 58.5 °F - 28.6 °F 32% 30.21 in 10.0 mi NNE 4.6 mph - N/A   Clear
3:35 PM 59.0 °F - 28.4 °F 31% 30.21 in 10.0 mi NNW 3.5 mph - N/A   Clear
3:55 PM 59.0 °F - 27.9 °F 31% 30.21 in 10.0 mi NNW 3.5 mph - N/A   Clear
4:15 PM 58.3 °F - 28.2 °F 32% 30.22 in 10.0 mi Calm Calm - N/A   Clear
4:35 PM 57.2 °F - 28.8 °F 34% 30.23 in 10.0 mi North 3.5 mph - N/A   Clear
4:55 PM 55.4 °F - 32.2 °F 41% 30.24 in 10.0 mi Calm Calm - N/A   Clear
5:15 PM 51.8 °F - 37.2 °F 58% 30.24 in 10.0 mi Calm Calm - N/A   Clear
5:35 PM 50.2 °F - 36.3 °F 59% 30.25 in 10.0 mi Calm Calm - N/A   Clear
5:55 PM 48.7 °F - 36.5 °F 63% 30.25 in 10.0 mi Calm Calm - N/A   Clear
6:15 PM 46.8 °F - 37.2 °F 69% 30.26 in 10.0 mi Calm Calm - N/A   Clear
6:35 PM 45.7 °F - 37.2 °F 72% 30.27 in 10.0 mi Calm Calm - N/A   Clear
6:55 PM 44.4 °F - 36.7 °F 74% 30.27 in 10.0 mi Calm Calm - N/A   Clear
7:15 PM 44.4 °F - 36.9 °F 75% 30.27 in 10.0 mi Calm Calm - N/A   Clear
7:35 PM 43.2 °F - 37.0 °F 79% 30.27 in 10.0 mi Calm Calm - N/A   Clear
7:55 PM 42.8 °F - 37.0 °F 80% 30.28 in 10.0 mi Calm Calm - N/A   Clear
8:15 PM 41.4 °F - 37.0 °F 85% 30.28 in 10.0 mi Calm Calm - N/A   Clear
8:35 PM 41.4 °F - 36.9 °F 84% 30.29 in 10.0 mi Calm Calm - N/A   Clear
8:55 PM 40.8 °F - 36.3 °F 84% 30.30 in 10.0 mi Calm Calm - N/A   Clear
9:15 PM 41.4 °F - 37.4 °F 86% 30.31 in 10.0 mi Calm Calm - N/A   Clear
9:35 PM 38.8 °F - 36.1 °F 90% 30.30 in 10.0 mi Calm Calm - N/A   Clear
9:55 PM 39.0 °F - 36.3 °F 90% 30.31 in 10.0 mi Calm Calm - N/A   Clear
10:15 PM 37.9 °F - 36.0 °F 93% 30.31 in 10.0 mi Calm Calm - N/A   Clear
10:35 PM 38.5 °F - 35.8 °F 90% 30.32 in 10.0 mi Calm Calm - N/A   Clear
10:55 PM 37.8 °F - 36.0 °F 93% 30.32 in 10.0 mi Calm Calm - N/A   Clear
11:15 PM 37.4 °F - 35.8 °F 94% 30.31 in 10.0 mi Calm Calm - N/A   Clear
11:35 PM 36.9 °F - 35.1 °F 93% 30.31 in 10.0 mi Calm Calm - N/A   Clear
11:55 PM 36.9 °F - 34.9 °F 93% 30.32 in 10.0 mi Calm Calm - N/A   Clear